GFSSW_sfc_temp_132.txt.gz
Temp
61 61 60 60 60 60 60 59 60 60 60 60 60 60 60 61 60 53 46 54 56 64 67 62 64 62 61 57 58 55 42 36 43 50 53 60 59 70 74 70 72 73 70 74 73
60 60 60 59 60 59 59 59 59 59 59 59 60 60 60 60 53 47 58 63 65 66 58 56 57 59 52 53 55 51 40 44 53 57 55 61 61 64 68 68 67 71 71 73 72
59 60 59 60 59 59 59 59 59 59 60 60 59 59 59 58 44 51 66 65 66 66 60 60 61 59 50 49 51 50 48 53 56 60 62 62 61 65 63 59 67 67 68 70 71
59 59 59 59 59 59 59 59 59 59 59 59 59 58 59 53 44 57 71 70 70 64 60 58 56 51 48 46 51 45 52 57 59 62 60 60 65 63 62 65 72 71 71 70 71
58 58 58 58 58 58 58 58 58 58 58 58 58 58 55 46 45 60 68 65 64 61 56 54 52 50 46 48 49 45 50 55 62 60 59 62 62 63 60 68 73 72 71 69 70
57 57 57 57 57 57 57 57 57 57 57 58 58 58 49 38 60 63 62 61 61 57 56 54 54 53 49 49 50 52 53 56 55 56 57 59 61 61 64 69 69 70 69 69 70
57 57 57 57 57 57 57 56 56 56 57 58 59 56 47 45 61 62 60 53 59 61 54 59 59 58 54 47 55 53 46 52 52 55 56 57 55 56 67 69 68 67 67 66 70
57 56 56 56 57 57 57 56 56 56 57 58 59 53 43 57 61 57 59 57 60 60 58 59 61 53 51 52 52 48 45 43 50 55 57 58 48 58 66 65 66 68 66 65 66
57 56 56 56 56 56 56 55 56 57 58 58 53 49 41 59 52 57 58 52 54 57 58 62 58 51 51 44 40 41 36 39 46 55 57 54 47 61 65 64 64 64 64 64 63
56 55 55 55 56 55 55 55 55 55 57 58 56 44 46 48 56 60 58 57 52 53 51 52 51 44 43 42 36 36 39 43 45 51 53 48 47 60 59 62 63 62 63 62 62
56 55 55 55 55 55 53 49 42 40 43 42 45 45 53 58 63 59 58 53 52 50 43 48 43 37 43 47 49 49 45 45 48 55 52 48 49 55 57 55 58 60 61 61 61
55 55 55 55 55 54 50 39 43 42 35 46 46 49 54 58 49 55 58 48 44 40 47 42 38 47 51 50 48 47 44 43 49 55 51 49 49 54 55 57 58 60 60 61 60
54 54 54 54 54 46 40 43 49 46 33 41 46 46 48 52 45 47 55 51 44 42 44 40 46 52 50 46 45 46 44 44 47 51 50 48 45 50 56 56 58 60 61 61 62
54 54 54 54 47 42 41 51 47 45 26 35 42 49 51 54 45 57 58 51 48 42 45 44 52 49 47 46 48 40 50 51 50 45 37 47 34 44 49 53 56 59 59 58 60
54 54 54 53 47 41 47 44 48 43 16 45 47 60 57 49 52 52 59 52 42 45 46 42 46 47 44 47 51 45 54 52 52 44 38 40 38 43 47 48 54 53 53 52 53
54 54 53 47 43 45 47 50 46 31 21 41 51 48 46 52 53 51 52 55 53 46 48 48 55 53 51 54 55 56 53 52 47 40 31 38 39 40 43 44 47 52 51 52 52
53 54 51 49 41 45 45 45 30 24 45 40 41 44 43 44 48 44 42 44 38 34 35 44 48 53 56 49 54 53 47 33 29 28 28 41 39 40 44 48 49 51 49 52 54
53 52 47 49 46 45 44 36 23 36 38 46 44 41 38 45 45 42 35 36 46 43 38 35 33 46 55 51 48 47 46 30 25 25 29 42 35 40 47 49 51 52 52 54 54
52 42 41 46 48 44 39 26 27 34 37 36 37 36 37 45 44 44 35 36 46 46 38 37 38 53 56 57 55 49 43 46 36 35 33 35 39 46 49 48 51 51 52 52 53
45 36 39 51 47 42 32 29 34 38 39 38 31 38 31 37 37 40 38 41 40 46 48 42 37 50 54 58 58 53 54 41 38 28 26 33 34 37 43 46 49 49 50 52 53
38 34 47 52 44 36 28 32 35 42 40 35 35 34 36 37 39 39 40 43 44 46 47 45 41 41 52 47 44 47 47 46 43 35 28 28 33 44 45 46 48 49 50 49 49
39 30 47 47 38 35 32 35 39 39 42 38 38 37 35 36 36 38 39 44 49 48 44 46 41 33 39 47 54 48 48 41 31 32 32 31 36 48 47 47 49 49 48 48 49
37 37 45 44 30 32 37 38 42 39 39 38 35 36 38 37 34 39 41 50 51 47 43 47 39 32 37 43 48 44 49 48 42 38 34 30 34 48 49 50 49 47 48 50 50
38 30 36 36 38 35 33 35 36 44 41 40 39 39 35 35 39 38 41 48 50 48 51 50 39 35 31 36 41 42 48 50 46 34 36 35 40 45 46 47 47 47 49 50 49
37 30 39 32 34 35 38 37 34 34 39 42 38 37 37 32 37 36 40 42 47 47 46 45 38 39 46 50 51 49 49 50 46 44 43 40 42 45 46 48 46 48 49 48 46
37 35 39 36 37 36 38 35 34 35 37 36 35 37 39 36 37 35 38 40 41 45 43 44 36 41 42 49 52 49 52 52 50 45 46 44 42 49 48 48 47 48 48 45 43
45 44 38 38 36 35 35 35 35 37 39 40 38 38 37 40 41 42 43 43 42 41 41 41 39 35 34 45 48 40 43 46 46 47 46 41 45 50 47 47 46 46 47 44 44

GFSSW_sfc_temp_138.txt.gz
Temp
60 60 60 60 60 60 60 60 60 60 60 60 60 60 61 60 60 67 65 73 73 69 69 77 78 79 82 80 83 84 71 70 75 74 78 85 81 88 90 88 89 94 92 92 91
59 59 59 59 59 59 59 59 59 59 60 60 60 60 60 60 63 65 75 70 68 66 70 74 73 77 76 77 78 74 70 74 83 84 80 84 83 84 83 84 86 89 93 90 90
59 59 59 59 59 59 59 59 59 59 59 59 59 60 59 62 62 73 68 70 66 68 76 78 80 77 74 78 76 74 71 80 80 82 84 82 82 86 82 81 87 86 92 90 88
58 59 59 59 58 58 58 58 59 59 59 59 59 59 59 64 57 74 67 66 66 73 74 73 74 71 71 70 77 69 77 79 82 81 79 79 84 82 82 85 89 89 92 91 88
58 58 58 58 58 58 58 58 58 58 58 58 58 58 59 56 60 78 69 69 74 73 70 71 71 72 69 75 75 71 76 76 80 80 80 82 79 80 82 86 89 89 89 90 90
57 57 57 57 57 57 57 57 57 57 57 58 58 58 52 43 74 77 76 75 73 73 71 74 73 77 74 74 72 75 73 76 77 78 79 76 77 78 81 86 85 87 87 91 91
57 57 57 57 57 57 57 56 56 56 57 58 59 57 48 52 73 76 74 72 75 74 70 75 79 74 73 69 76 73 67 72 75 76 75 78 70 73 82 84 82 84 87 89 93
57 56 56 56 56 56 57 57 56 57 58 59 59 56 43 66 70 68 71 71 73 74 75 78 77 74 72 76 69 67 68 64 73 74 76 73 66 79 83 81 80 83 86 88 91
57 56 56 56 56 57 56 56 56 59 59 61 58 52 50 69 61 68 70 65 68 70 69 70 71 67 69 64 62 64 59 61 68 74 74 71 68 80 83 82 80 83 85 87 90
56 56 55 55 56 56 55 55 60 59 63 66 61 46 57 57 66 67 71 68 63 64 61 61 63 59 63 60 54 59 59 66 64 70 73 70 71 77 81 81 80 82 85 87 89
56 56 55 55 56 55 57 69 63 61 62 53 56 54 58 66 70 66 67 62 59 58 51 56 53 52 59 62 65 68 65 62 66 73 69 70 71 77 80 80 80 82 84 84 87
55 55 55 55 55 55 61 59 56 56 41 57 61 60 63 63 52 60 65 55 50 47 55 49 48 61 65 65 63 65 63 61 67 71 70 69 69 75 79 80 81 82 84 85 87
55 55 55 55 55 59 62 58 65 59 38 51 59 57 59 59 52 54 62 58 54 50 51 51 55 61 62 61 59 60 61 61 63 66 70 69 66 69 76 80 81 84 87 87 88
54 55 55 54 56 64 63 65 63 57 34 51 56 59 58 59 48 63 59 58 55 52 54 55 63 59 57 57 61 54 66 65 63 60 56 68 57 66 73 74 77 81 84 86 87
54 55 54 53 61 61 63 66 61 47 32 56 56 69 63 54 55 54 54 46 50 53 52 52 56 56 54 57 62 58 66 64 64 61 62 61 60 68 72 70 74 79 83 86 86
54 54 54 62 65 67 67 64 57 36 32 49 57 53 54 58 57 51 48 51 49 47 56 57 65 60 61 63 64 66 62 62 64 62 49 59 60 65 67 71 75 80 80 80 82
54 53 56 64 59 69 65 57 37 35 52 40 43 49 50 50 53 51 47 42 35 32 40 52 56 63 63 55 61 59 54 46 44 47 49 64 59 67 69 72 78 75 74 74 78
53 52 59 65 70 66 62 50 34 45 42 47 45 45 43 52 52 51 46 39 41 43 41 43 41 56 61 56 53 55 57 52 41 45 52 64 54 64 68 67 70 70 66 68 75
52 67 67 69 68 65 57 41 35 39 41 36 37 45 48 49 47 47 42 39 40 42 42 40 47 61 62 62 61 55 52 68 58 60 56 57 60 63 64 57 59 60 59 57 60
59 61 66 70 66 63 52 34 39 43 40 38 32 40 37 43 42 43 45 47 38 47 50 48 38 58 60 65 62 59 66 53 59 46 45 52 55 59 60 52 54 53 54 57 60
60 58 65 69 66 60 37 38 44 52 46 36 35 34 40 35 37 39 44 43 42 45 46 45 46 50 57 51 54 57 56 59 62 59 50 46 55 69 65 56 53 53 56 61 63
58 56 66 68 54 50 41 40 45 49 52 44 39 36 35 35 36 41 38 37 45 46 37 47 45 44 50 62 65 64 58 60 52 50 58 56 50 68 64 56 53 53 57 61 63
53 56 67 65 38 37 43 44 48 46 46 41 37 37 38 35 33 43 43 44 46 44 43 44 42 39 36 45 61 56 59 63 62 61 53 52 46 54 53 50 52 53 55 58 60
54 49 58 60 51 39 37 43 41 50 46 45 40 40 37 36 39 38 40 43 47 45 49 46 49 45 38 47 53 50 58 63 61 54 56 59 47 47 47 47 50 52 55 57 59
54 47 44 41 44 42 46 43 39 36 44 46 39 39 36 33 36 38 40 41 46 48 46 45 45 42 46 55 56 55 57 60 58 60 56 56 52 47 47 48 51 54 56 58 61
43 42 46 38 44 45 44 41 37 38 39 38 35 38 38 35 37 34 38 39 38 44 41 50 45 47 47 55 55 54 58 59 61 60 60 61 49 52 52 53 52 54 59 60 62
50 48 42 43 48 43 43 39 39 41 43 46 43 38 37 40 42 43 45 43 42 41 38 44 48 42 37 47 46 43 55 58 60 62 63 56 48 52 47 50 52 55 59 60 60

GFSSW_sfc_temp_141.txt.gz
Temp
60 60 60 60 60 59 60 60 60 60 60 60 60 60 61 60 60 69 68 75 77 72 65 83 84 83 84 83 88 89 75 72 78 80 84 96 89 95 97 93 97 99 98 97 97
59 60 60 60 59 59 59 59 59 59 60 60 60 60 60 60 64 66 77 74 74 71 74 74 78 82 78 79 83 80 73 76 87 89 88 92 92 91 89 89 91 93 101 97 97
59 59 59 59 59 59 59 59 59 59 59 60 60 60 60 63 63 74 69 71 72 70 78 80 83 82 76 81 80 80 73 84 86 91 92 89 90 92 88 85 91 91 95 97 95
59 59 59 59 59 58 58 58 59 59 59 59 59 59 59 65 57 74 68 68 68 75 73 76 79 76 74 74 82 75 80 82 87 91 88 86 91 88 89 89 97 97 98 98 95
58 58 58 58 58 58 58 58 58 58 58 58 58 59 60 58 62 82 70 70 75 73 72 74 73 75 72 77 80 77 80 84 86 88 88 87 84 86 88 93 96 95 95 94 95
57 57 57 57 57 57 57 57 57 57 57 58 58 58 52 45 75 82 82 80 79 78 75 77 76 79 77 77 78 82 81 82 85 84 86 82 83 85 88 93 91 91 91 93 95
57 57 57 57 57 57 57 57 57 57 58 58 59 60 50 53 75 80 81 78 79 77 73 79 81 78 78 75 84 83 76 79 80 82 81 84 76 79 88 90 87 87 90 92 94
57 57 57 57 57 57 57 57 56 57 58 60 60 61 46 72 76 71 73 72 79 80 78 80 83 79 78 81 77 74 75 68 77 79 82 81 69 82 88 86 84 86 89 90 93
57 57 56 56 57 57 56 56 57 58 60 61 61 57 56 74 67 73 73 67 72 75 77 79 77 72 74 69 66 69 63 64 71 81 79 77 72 83 90 85 83 85 88 90 92
57 56 56 56 57 56 56 55 61 63 64 72 71 54 63 65 72 72 76 72 67 68 65 66 67 63 65 65 56 61 63 69 67 78 78 75 74 82 87 86 84 85 87 89 90
56 56 56 56 56 55 58 72 67 65 67 59 62 61 65 72 74 71 75 56 67 61 54 62 56 53 60 65 67 70 68 67 73 79 73 72 75 78 84 86 85 86 86 87 89
56 56 56 56 55 55 60 65 63 63 50 62 63 65 70 71 60 67 73 54 54 49 56 56 50 62 67 67 66 66 67 68 73 79 74 72 73 79 84 83 86 86 86 88 90
55 55 55 55 55 59 70 67 73 66 48 56 67 65 66 67 57 56 67 63 51 50 49 52 57 64 64 65 62 64 63 68 68 73 76 71 69 75 82 85 86 87 89 90 89
55 55 55 55 58 72 70 73 72 62 38 55 58 63 66 64 52 64 65 63 58 52 55 55 65 61 59 60 65 59 70 71 68 66 59 72 59 70 77 78 82 84 87 89 90
54 55 54 54 62 67 71 75 69 60 33 55 55 73 68 56 60 54 62 50 46 55 57 49 59 59 57 60 67 64 72 70 69 66 63 65 62 70 76 74 77 82 86 89 91
54 55 54 69 72 75 77 73 59 37 33 50 56 55 58 61 56 55 51 55 48 46 57 59 67 64 63 67 68 71 67 68 69 66 51 64 63 66 71 74 79 82 86 88 90
54 54 55 68 67 78 75 63 39 40 57 45 46 56 54 50 57 52 46 38 38 32 42 54 56 63 67 61 67 65 59 49 48 49 52 68 61 69 78 80 81 81 85 88 90
53 52 63 74 79 75 69 48 38 50 48 51 50 51 43 54 52 51 48 42 39 40 40 42 43 54 65 61 59 59 58 50 41 46 54 67 58 64 78 81 85 86 85 84 85
52 74 73 75 77 73 62 43 39 44 48 40 40 47 49 52 48 47 47 39 40 42 42 42 49 63 63 65 64 61 53 66 59 62 59 63 63 68 73 72 73 74 75 77 83
60 69 73 76 75 68 57 37 44 50 50 46 34 45 38 44 39 42 45 44 40 49 48 48 44 61 61 66 64 62 68 54 60 47 47 58 58 61 62 65 66 65 62 68 76
64 65 72 76 75 65 47 44 49 55 53 40 38 36 38 36 36 39 39 43 42 42 48 47 48 53 60 55 53 58 55 61 62 61 52 50 58 73 66 65 57 56 59 64 67
63 60 74 76 59 57 49 47 48 51 54 49 45 39 35 36 35 39 39 37 44 44 40 47 45 47 53 62 66 65 60 62 54 52 59 59 52 75 69 63 57 57 65 70 71
61 65 75 72 44 44 48 48 52 48 49 47 42 43 39 36 34 43 43 50 46 43 40 47 39 39 44 50 49 53 64 65 63 62 56 53 46 62 58 55 58 61 64 69 72
62 56 63 65 61 47 42 47 44 54 50 50 46 46 38 36 42 38 40 47 48 45 48 47 44 48 41 46 49 50 58 63 62 54 56 55 44 47 49 51 56 58 63 66 68
61 55 51 48 49 48 50 47 43 39 49 50 44 43 38 33 37 40 41 41 46 47 46 43 43 52 48 56 61 59 54 62 59 62 59 51 47 47 49 51 55 60 63 63 65
52 45 51 47 53 55 49 46 41 44 45 40 37 44 42 37 38 35 39 39 39 44 42 45 45 53 42 49 56 56 61 64 64 63 61 61 48 56 53 56 55 58 61 62 63
54 53 44 48 55 53 51 45 44 47 50 50 48 42 42 45 49 51 52 51 47 41 42 43 49 41 36 50 57 52 60 60 61 66 57 48 47 51 50 52 54 59 61 62 64

GFSSW_sfc_temp_144.txt.gz
Temp
60 60 60 60 60 60 59 60 60 60 60 60 60 60 60 60 60 66 65 74 76 73 71 78 80 81 81 78 84 86 71 68 72 76 80 91 91 98 99 94 96 99 99 96 98
60 60 60 60 59 59 59 59 59 59 60 60 60 60 60 60 60 62 74 74 74 74 75 72 73 80 74 76 80 77 70 70 81 84 84 89 91 94 91 89 90 94 100 98 98
59 59 59 59 59 59 58 59 59 59 59 59 60 59 60 61 58 71 70 72 72 74 78 77 77 76 73 76 76 76 69 78 81 87 90 89 90 96 89 84 89 90 95 96 95
58 59 59 58 58 58 58 59 59 59 59 59 59 59 59 61 53 75 71 71 72 78 75 73 73 68 67 69 77 70 77 79 83 88 87 86 92 89 90 89 96 96 98 97 94
58 58 58 58 58 58 58 58 58 58 58 58 59 59 58 55 57 76 75 76 77 74 71 69 66 67 65 72 75 73 76 81 83 84 85 88 86 87 88 94 97 98 98 96 94
57 58 58 58 58 58 57 57 57 57 57 58 59 59 52 43 73 78 79 79 79 76 73 72 70 74 71 72 73 78 78 80 83 83 84 82 84 85 87 94 92 93 93 95 95
57 57 57 57 57 57 57 57 57 57 58 58 60 59 49 52 74 75 74 73 79 78 72 77 78 73 74 70 78 78 73 77 79 82 81 85 77 78 87 91 89 89 90 91 93
57 57 57 57 57 57 57 57 57 57 58 60 60 62 46 70 76 75 76 73 75 76 76 78 79 74 72 77 73 71 72 66 77 80 81 80 68 81 87 87 86 87 88 88 90
57 56 56 57 57 57 56 56 57 58 59 61 60 56 54 75 67 76 77 69 72 73 73 78 75 67 70 64 62 67 60 64 70 81 79 77 70 82 87 85 83 85 85 87 88
57 56 56 56 56 56 55 55 60 62 65 70 67 52 63 64 74 75 79 73 65 64 65 64 65 60 60 61 52 58 61 65 65 75 76 73 72 80 84 84 83 84 85 86 88
56 56 55 56 56 55 57 64 67 65 67 61 62 61 65 73 78 73 76 71 65 60 49 59 51 50 55 61 65 66 65 63 70 76 73 72 73 76 83 84 83 83 84 84 87
56 56 56 55 55 55 59 64 66 66 52 64 65 65 69 71 63 69 74 61 54 47 53 52 45 55 64 64 63 64 64 64 70 76 73 72 71 78 81 82 84 84 83 85 86
55 55 55 56 55 60 68 71 76 69 51 57 67 67 69 71 62 63 67 61 54 48 48 46 52 60 60 60 59 60 61 64 66 73 75 73 67 71 80 83 85 87 86 87 86
55 55 55 55 58 70 71 77 75 68 41 48 58 63 67 67 54 68 65 55 55 51 52 47 58 58 56 57 61 54 66 67 67 66 60 73 55 67 74 76 81 84 85 86 87
55 55 55 54 60 66 74 79 73 64 32 58 59 74 69 61 61 55 64 55 44 52 54 42 51 52 53 56 63 60 68 66 66 64 65 65 58 66 73 72 76 81 84 86 88
55 55 54 67 68 74 80 77 68 39 34 54 59 57 58 61 60 56 55 57 50 44 50 51 61 57 60 63 64 67 65 65 66 64 52 62 60 61 68 72 77 82 84 86 88
55 54 55 68 66 80 78 66 40 37 57 48 49 55 51 51 54 50 46 38 37 33 37 49 53 60 59 54 64 62 57 48 47 47 47 64 61 65 74 78 80 80 83 86 88
54 52 64 74 80 78 70 51 37 50 48 54 52 52 44 52 49 51 45 39 40 38 36 39 41 55 57 51 53 58 57 42 39 38 49 60 56 65 78 82 84 84 84 86 87
53 71 75 78 80 75 59 42 41 43 50 46 47 46 47 49 46 46 47 37 41 39 34 39 45 62 61 61 57 58 52 59 55 58 54 58 63 71 76 80 81 81 82 82 85
57 66 73 79 78 70 52 40 47 54 53 48 36 44 37 42 39 38 43 43 40 47 45 43 40 60 62 63 60 60 67 48 53 44 45 57 55 58 65 69 76 76 75 76 78
62 65 75 80 78 65 46 47 53 56 54 44 39 39 43 36 36 36 38 41 42 41 46 42 44 53 59 54 47 55 53 57 58 58 50 48 55 70 66 67 64 67 71 74 76
61 60 77 78 59 57 49 51 51 54 56 51 48 45 37 37 35 37 40 40 44 44 38 47 43 42 53 62 63 61 58 58 50 48 54 52 52 72 69 66 64 64 69 70 75
58 66 77 73 46 48 52 52 54 51 49 48 45 47 42 36 33 40 45 52 47 43 39 46 40 38 43 54 60 51 58 61 59 59 54 47 46 59 64 61 62 64 66 67 71
60 56 63 64 62 52 48 51 48 56 52 51 49 47 43 38 41 37 40 47 50 45 48 45 39 42 41 48 52 44 51 62 60 50 52 49 45 49 55 57 62 64 67 69 70
62 55 54 49 52 52 56 54 48 43 51 52 43 42 42 34 37 40 43 45 48 46 45 43 40 48 51 54 55 56 52 59 57 59 49 49 46 48 54 57 61 64 65 66 67
51 47 50 47 56 56 54 50 48 48 46 41 40 45 45 40 41 36 43 45 40 44 42 47 40 50 49 51 53 51 56 56 62 62 60 51 46 54 56 60 60 62 63 63 63
56 58 48 47 54 53 51 50 49 50 47 51 48 45 44 48 52 54 54 54 48 42 41 38 41 47 42 52 49 37 50 57 63 57 57 45 48 53 52 56 58 60 61 61 62

GFSSW_sfc_temp_147.txt.gz
Temp
60 60 60 60 59 59 59 59 59 60 60 60 60 60 60 60 60 56 51 62 65 69 71 69 71 71 71 63 69 70 55 54 57 62 66 78 71 83 89 85 87 89 87 89 91
59 59 59 59 59 59 59 59 59 59 60 60 60 60 60 60 53 51 63 71 72 72 68 65 64 67 62 62 62 62 55 58 65 69 69 74 74 79 80 79 79 84 90 92 91
59 59 59 59 59 59 59 59 59 59 60 60 60 60 59 58 48 57 72 72 72 72 69 69 68 66 59 63 61 59 57 66 69 73 75 75 77 81 77 71 78 80 84 88 86
58 59 59 59 59 59 58 58 59 59 59 59 59 59 59 56 40 65 72 73 72 71 69 65 63 56 52 54 64 57 66 68 71 75 75 74 80 78 75 78 86 86 85 87 83
58 58 58 58 58 58 58 58 58 58 58 58 59 59 55 47 47 66 71 72 72 71 65 62 58 56 52 56 61 61 65 70 73 74 74 76 75 75 76 83 87 89 87 84 83
57 58 58 58 58 58 57 57 57 57 57 58 59 59 50 39 62 69 72 70 69 68 66 63 60 62 58 57 57 63 67 68 72 72 74 72 73 73 78 81 83 85 80 80 82
57 57 57 57 57 57 57 56 56 57 58 58 60 58 49 45 66 68 65 62 67 68 62 68 68 63 61 56 65 64 59 67 69 72 71 74 68 71 78 78 78 80 81 82 81
57 56 56 57 57 57 57 56 56 57 58 59 60 55 45 63 64 63 65 63 70 71 68 68 69 64 60 64 63 59 59 53 66 71 74 70 61 73 77 76 74 79 80 81 78
57 56 56 56 56 56 56 56 56 59 60 60 54 50 46 69 62 65 66 65 68 69 68 73 65 57 59 52 49 53 47 52 59 71 71 69 60 71 76 75 72 73 75 78 77
56 56 56 56 56 56 55 56 59 60 62 64 62 49 53 57 70 74 74 72 65 63 60 57 54 48 52 49 38 45 49 54 56 65 70 67 65 70 74 75 72 71 73 75 76
56 56 55 56 56 55 53 53 57 52 57 52 56 54 60 67 72 67 73 67 64 56 44 50 40 40 45 53 53 54 54 54 60 68 66 65 65 68 71 71 72 69 70 72 74
56 56 56 56 55 55 51 50 58 54 46 60 61 61 65 67 59 65 73 59 54 46 49 44 37 47 53 53 53 52 51 54 62 69 66 62 63 66 71 71 73 73 71 71 72
55 55 55 55 55 53 57 63 65 60 43 55 63 64 63 67 60 60 65 61 52 45 44 39 43 51 52 50 48 51 49 53 56 65 68 63 57 64 72 74 72 77 77 72 75
55 55 55 55 54 58 58 69 65 61 35 47 58 63 66 66 54 65 65 59 51 42 44 45 51 49 49 48 51 45 58 60 60 58 50 65 47 59 67 68 71 71 75 74 73
54 55 55 54 49 53 64 68 64 55 27 55 58 71 65 55 58 53 60 54 45 47 46 42 46 46 45 49 54 46 60 58 58 55 53 58 50 58 62 62 67 70 72 75 72
54 55 54 57 52 60 68 68 60 37 29 50 56 53 53 54 57 56 54 54 49 44 46 44 54 52 47 53 58 58 54 57 56 54 43 53 51 48 59 64 68 68 72 75 73
54 54 52 60 54 67 69 56 36 30 52 45 45 49 51 49 50 53 49 40 35 31 33 45 45 52 53 43 54 54 48 39 38 40 34 53 52 50 64 70 69 69 70 72 74
53 52 56 63 65 67 61 43 29 44 43 51 48 48 46 49 45 47 44 38 43 39 34 34 35 47 55 49 46 49 48 33 29 33 39 52 47 56 67 73 73 74 72 72 72
52 58 61 66 68 64 49 33 34 43 48 44 44 42 43 45 44 42 41 35 40 39 33 33 38 55 57 56 51 44 44 48 38 45 39 45 52 63 72 69 70 71 73 68 68
49 54 60 70 69 58 44 38 42 52 52 48 35 40 35 39 37 37 39 42 38 43 45 38 33 53 56 58 54 48 57 41 40 31 33 45 48 48 57 60 68 69 63 65 66
51 52 64 70 65 53 34 40 49 56 53 43 40 39 40 36 36 36 39 42 42 41 44 43 39 44 54 47 42 43 43 48 43 40 34 36 42 57 52 62 61 62 65 64 62
51 47 65 67 49 47 41 47 52 52 53 49 47 43 38 37 36 36 37 42 47 44 37 43 40 33 45 54 54 51 48 49 38 36 46 45 38 56 58 60 61 64 63 64 65
47 51 64 61 38 40 48 50 54 49 49 47 42 45 43 38 33 37 40 49 47 43 38 41 38 29 34 46 52 45 51 54 48 44 44 36 39 55 57 56 59 61 62 64 65
49 44 51 51 52 44 42 48 45 55 51 50 46 47 41 38 42 37 39 45 50 46 48 45 39 36 30 40 46 42 48 54 49 40 42 40 44 49 49 51 54 57 62 63 64
50 44 45 37 42 42 48 47 44 41 50 48 42 41 40 34 37 38 42 44 49 46 44 43 36 41 43 49 53 47 47 51 48 47 42 44 46 47 50 53 54 56 58 61 61
44 41 45 41 45 47 46 44 43 45 44 41 39 42 42 37 39 35 41 42 40 44 41 44 36 40 42 50 49 48 48 50 52 56 52 48 45 52 53 58 60 60 60 60 59
51 51 44 43 45 44 43 44 45 47 46 48 45 42 41 43 45 47 49 47 46 42 40 38 39 38 33 44 46 40 51 51 53 54 53 44 47 51 51 55 58 59 59 58 58